EGNT

Newcastle Airport

Airport
ICAO code
EGNT
IATA Code
NCL
Summary
ICAO Region
EUR
ICAO Territory
Location

Woolsington, Newcastle, England

Serving
Newcastle
Elevation
266 ft
Coordinates
55° 2' 12" N , 1° 41' 30" W
KCC
Metar
EGNT 220720Z 15004KT 080V240 6000 -RA BKN006 13/13 Q1010

Description

Domestic and international airport serving Newcastle, Gateshead the north-east of England.

Climatology

Temperate Marine climate/Oceanic climate (Köppen climate classification Cfb). Moderately cool summer and comparatively warm winter with a temperature range of only 14°C. Prevailing south-westerly winds from the Atlantic Ocean.

Runways

Designator Length Width Surface Rops
7/25 2329 46 ASP Yes/Yes

Airport map

Aerial View

Airport accidents

SKYbrary Partners:

Safety knowledge contributed by: